DW1520 Weather Reports


time (UTC)temp
C
wind
direction
speed
KPH
gust
KPH
rain 1hr
cm
rain 24hr
cm
rain mn
cm
humidity
%
barometer
mb
20260901022006 25 117 0.0 0.0 0.00 0.00 0.00 83 1009.0
20260901021505 25 117 0.0 0.0 0.00 0.00 0.00 83 1009.0
20260901021006 25 117 0.0 0.0 0.00 0.00 0.00 83 1009.1
20260901020506 25 117 0.0 0.0 0.00 0.00 0.00 83 1009.1
20260901020005 25 117 0.0 0.0 0.00 0.00 0.00 83 1009.0
20260901015506 25 117 0.0 0.0 0.00 0.00 0.00 83 1009.0
20260901015006 25 117 0.0 0.0 0.00 0.00 0.00 84 1008.9
20260901014006 26 117 0.0 0.0 0.00 0.00 0.00 85 1008.7
20260901013006 26 117 0.0 1.6 0.00 0.00 0.00 85 1008.6
20260901012506 26 117 0.0 0.0 0.00 0.00 0.00 85 1008.6
20260901012006 26 117 0.0 0.0 0.00 0.00 0.00 85 1008.6
20260901011505 26 117 0.0 0.0 0.00 0.00 0.00 85 1008.6
20260901011005 26 117 0.0 0.0 0.00 0.00 0.00 85 1008.5
20260901010506 27 117 0.0 1.6 0.00 0.00 0.00 84 1008.5
20260901005505 27 117 0.0 1.6 0.00 0.00 0.00 83 1008.3
20260901005006 27 173 0.0 1.6 0.00 0.00 0.00 83 1008.3
20260901004506 27 173 0.0 1.6 0.00 0.00 0.00 83 1008.3
20260901004006 27 173 0.0 1.6 0.00 0.00 0.00 83 1008.3
20260901003505 27 173 0.0 1.6 0.00 0.00 0.00 83 1008.3
20260901002505 28 173 0.0 1.6 0.00 0.00 0.00 82 1008.3
20260901002006 28 173 1.6 1.6 0.00 0.00 0.00 82 1008.2
20260901001506 28 173 0.0 4.8 0.00 0.00 0.00 81 1008.2
20260901001006 28 173 1.6 4.8 0.00 0.00 0.00 81 1008.1
20260901000505 28 173 1.6 3.2 0.00 0.00 0.00 80 1008.1
20260901000005 28 173 0.0 1.6 0.00 0.00 0.00 80 1008.1
20260831235506 28 173 0.0 3.2 0.00 0.00 0.00 80 1008.0
20260831234505 28 173 0.0 3.2 0.00 0.00 0.00 79 1008.0
20260831234006 28 173 0.0 3.2 0.00 0.00 0.00 78 1007.9
20260831233505 28 173 0.0 1.6 0.00 0.00 0.00 78 1008.0
20260831233006 28 173 0.0 3.2 0.00 0.00 0.00 78 1008.0
20260831232005 28 173 0.0 1.6 0.00 0.00 0.00 77 1008.0
20260831231006 28 173 0.0 3.2 0.00 0.00 0.00 76 1007.9
20260831230505 28 173 0.0 3.2 0.00 0.00 0.00 75 1007.9
20260831230006 28 173 0.0 3.2 0.00 0.00 0.00 76 1008.0
20260831225505 28 173 1.6 3.2 0.00 0.00 0.00 75 1007.9
20260831225006 28 173 0.0 3.2 0.00 0.00 0.00 75 1007.9
20260831224006 29 173 0.0 1.6 0.00 0.00 0.00 76 1007.9
20260831223005 29 173 0.0 1.6 0.00 0.00 0.00 75 1007.7
20260831222505 29 173 0.0 3.2 0.00 0.00 0.00 75 1007.8
20260831222006 29 173 0.0 3.2 0.00 0.00 0.00 76 1007.8
20260831221505 29 173 1.6 3.2 0.00 0.00 0.00 76 1007.8
20260831221006 29 173 0.0 3.2 0.00 0.00 0.00 76 1007.8
20260831220006 29 173 0.0 3.2 0.00 0.00 0.00 74 1007.7
20260831215505 29 173 1.6 3.2 0.00 0.00 0.00 75 1007.8
20260831215006 29 173 0.0 3.2 0.00 0.00 0.00 75 1007.7
20260831214505 29 173 1.6 3.2 0.00 0.00 0.00 74 1007.8
20260831214005 29 173 1.6 3.2 0.00 0.00 0.00 74 1007.7
20260831213505 29 173 1.6 4.8 0.00 0.00 0.00 73 1007.6
20260831213005 29 173 1.6 4.8 0.00 0.00 0.00 75 1007.7
20260831212506 29 173 0.0 3.2 0.00 0.00 0.00 75 1007.6
20260831212005 29 173 1.6 4.8 0.00 0.00 0.00 74 1007.6
20260831211505 29 173 0.0 3.2 0.00 0.00 0.00 76 1007.6
20260831211006 29 173 1.6 1.6 0.00 0.00 0.00 76 1007.6
20260831210505 29 173 0.0 3.2 0.00 0.00 0.00 77 1007.6
20260831210005 29 173 1.6 4.8 0.00 0.00 0.00 77 1007.7
20260831205505 29 173 0.0 1.6 0.00 0.00 0.00 76 1007.7
20260831204505 28 173 0.0 3.2 0.00 0.00 0.00 78 1007.6
20260831204006 28 173 0.0 0.0 0.00 0.00 0.00 77 1007.6
20260831203506 28 173 0.0 0.0 0.00 0.00 0.00 79 1007.4
20260831203006 28 173 0.0 0.0 0.00 0.00 0.00 78 1007.5
20260831202505 28 173 0.0 0.0 0.00 0.00 0.00 78 1007.5
20260831202006 28 173 0.0 0.0 0.00 0.00 0.00 78 1007.5
20260831200506 28 173 0.0 1.6 0.00 0.00 0.00 78 1007.3
20260831200005 28 173 0.0 1.6 0.00 0.00 0.00 80 1007.2
20260831195505 28 173 0.0 1.6 0.00 0.00 0.00 79 1007.1
20260831194506 28 173 0.0 1.6 0.00 0.00 0.00 79 1007.1
20260831193505 28 173 0.0 3.2 0.00 0.00 0.00 80 1007.2
20260831193006 28 173 0.0 3.2 0.00 0.00 0.00 78 1007.2
20260831192506 28 173 0.0 4.8 0.00 0.00 0.00 79 1007.3
20260831191505 28 173 0.0 3.2 0.00 0.00 0.00 78 1007.4
20260831190506 28 173 0.0 1.6 0.00 0.00 0.00 79 1007.5
20260831190005 28 173 0.0 4.8 0.00 0.00 0.00 79 1007.3
20260831185505 28 173 0.0 4.8 0.00 0.00 0.00 78 1007.3
20260831185005 28 173 1.6 4.8 0.00 0.00 0.00 77 1007.3
20260831184506 28 173 0.0 4.8 0.00 0.00 0.00 77 1007.3
20260831184005 29 173 0.0 3.2 0.00 0.00 0.00 75 1007.2
20260831183505 29 173 0.0 3.2 0.00 0.00 0.00 74 1007.2
20260831183006 29 173 0.0 3.2 0.00 0.00 0.00 73 1007.1
20260831182505 30 173 1.6 3.2 0.00 0.00 0.00 72 1007.1
20260831182005 30 172 0.0 3.2 0.00 0.00 0.00 71 1007.1
20260831181505 30 172 0.0 1.6 0.00 0.00 0.00 70 1007.2
20260831181006 31 172 0.0 1.6 0.00 0.00 0.00 71 1007.1
20260831180506 31 172 0.0 3.2 0.00 0.00 0.00 71 1007.1
20260831175005 31 173 0.0 3.2 0.00 0.00 0.00 70 1007.3
20260831174005 30 172 0.0 3.2 0.00 0.00 0.00 68 1007.3
20260831173506 30 172 1.6 3.2 0.00 0.00 0.00 72 1007.4
20260831173006 30 172 0.0 1.6 0.00 0.00 0.00 70 1007.3
20260831172006 30 172 0.0 1.6 0.00 0.00 0.00 70 1007.5
20260831171505 30 172 0.0 1.6 0.00 0.00 0.00 71 1007.5
20260831171006 30 172 1.6 3.2 0.00 0.00 0.00 72 1007.6
20260831170506 30 172 1.6 3.2 0.00 0.00 0.00 72 1007.6
20260831170005 29 254 0.0 3.2 0.00 0.00 0.00 77 1007.7
20260831165006 29 226 0.0 1.6 0.00 0.00 0.00 75 1007.8
20260831164505 29 226 0.0 1.6 0.00 0.00 0.00 76 1007.7
20260831164005 29 226 1.6 4.8 0.00 0.00 0.00 74 1007.7
20260831162505 29 169 0.0 1.6 0.00 0.00 0.00 76 1007.5
20260831161505 29 169 0.0 1.6 0.00 0.00 0.00 76 1007.5
20260831160505 28 169 0.0 1.6 0.00 0.00 0.00 75 1007.4
20260831160005 28 169 0.0 3.2 0.00 0.00 0.00 76 1007.3
20260831155005 28 169 0.0 3.2 0.00 0.00 0.00 76 1007.2
20260831154505 28 169 0.0 3.2 0.00 0.00 0.00 77 1007.3
20260831154005 28 169 0.0 3.2 0.00 0.00 0.00 78 1007.3
20260831153006 28 169 0.0 3.2 0.00 0.00 0.00 80 1007.2
20260831152505 27 169 0.0 1.6 0.00 0.00 0.00 79 1007.2
20260831152005 27 169 0.0 3.2 0.00 0.00 0.00 81 1007.1
20260831151005 26 169 0.0 1.6 0.00 0.00 0.00 83 1006.9
20260831150005 26 169 1.6 3.2 0.00 0.00 0.00 83 1006.6
20260831145505 26 169 0.0 3.2 0.00 0.00 0.00 84 1006.6
20260831145005 26 169 1.6 3.2 0.00 0.00 0.00 85 1006.5
20260831144505 26 169 0.0 3.2 0.00 0.00 0.00 86 1006.5
20260831144005 25 169 1.6 3.2 0.00 0.00 0.00 85 1006.5
20260831143005 25 169 1.6 3.2 0.00 0.00 0.00 86 1006.5
20260831142006 25 169 1.6 3.2 0.00 0.00 0.00 87 1006.5
20260831141505 25 169 1.6 3.2 0.00 0.00 0.00 88 1006.4
20260831141006 25 169 1.6 3.2 0.00 0.00 0.00 89 1006.5
20260831140506 25 169 0.0 3.2 0.00 0.00 0.00 89 1006.5
20260831140005 24 169 1.6 3.2 0.00 0.00 0.00 90 1006.5
20260831135505 24 169 1.6 3.2 0.00 0.00 0.00 90 1006.4
20260831135005 24 169 0.0 3.2 0.00 0.00 0.00 90 1006.3
20260831134005 23 169 1.6 3.2 0.00 0.00 0.00 91 1006.3
20260831133505 23 169 1.6 8.0 0.00 0.00 0.00 91 1006.3
20260831133005 23 169 3.2 9.7 0.00 0.00 0.00 91 1006.2
20260831132505 23 169 4.8 8.0 0.00 0.00 0.00 91 1006.1
20260831132006 23 158 3.2 8.0 0.00 0.00 0.00 92 1006.0
20260831131505 22 158 3.2 8.0 0.00 0.00 0.00 92 1006.0
20260831131005 22 158 3.2 4.8 0.00 0.00 0.00 92 1005.9
20260831130505 22 158 1.6 4.8 0.00 0.00 0.00 92 1005.8
20260831125514 22 158 1.6 4.8 0.00 0.00 0.00 92 1005.9
20260831125006 21 158 1.6 3.2 0.00 0.00 0.00 92 1005.9
20260831124505 21 158 1.6 3.2 0.00 0.00 0.00 92 1005.9
20260831124006 21 158 1.6 4.8 0.00 0.00 0.00 92 1005.8
20260831123505 21 158 3.2 8.0 0.00 0.00 0.00 92 1005.9
20260831123005 21 158 3.2 4.8 0.00 0.00 0.00 92 1005.8
20260831122505 21 158 3.2 4.8 0.00 0.00 0.00 92 1005.6
20260831122005 21 158 3.2 8.0 0.00 0.00 0.00 92 1005.6
20260831121505 21 158 3.2 4.8 0.00 0.00 0.00 92 1005.4
20260831121006 21 158 3.2 4.8 0.00 0.00 0.00 92 1005.4
20260831120506 21 158 1.6 4.8 0.00 0.00 0.00 92 1005.3
20260831120005 21 158 1.6 3.2 0.00 0.00 0.00 92 1005.3
20260831115505 21 158 0.0 3.2 0.00 0.00 0.00 92 1005.3
20260831115005 21 158 1.6 3.2 0.00 0.00 0.00 92 1005.3
20260831114505 21 158 3.2 4.8 0.00 0.00 0.00 92 1005.3
20260831114005 21 158 1.6 3.2 0.00 0.00 0.00 92 1005.3
20260831113505 21 158 1.6 4.8 0.00 0.00 0.00 92 1005.1
20260831113005 21 158 1.6 3.2 0.00 0.00 0.00 92 1005.1
20260831112005 21 158 0.0 0.0 0.00 0.00 0.00 92 1005.2
20260831111506 21 158 0.0 0.0 0.00 0.00 0.00 92 1005.0
20260831110505 21 158 0.0 4.8 0.00 0.00 0.00 92 1005.1
20260831110005 21 158 3.2 8.0 0.00 0.00 0.00 92 1005.2
20260831105505 21 158 3.2 8.0 0.00 0.00 0.00 92 1005.2
20260831105005 21 158 1.6 3.2 0.00 0.00 0.00 92 1005.1
20260831104505 21 158 3.2 4.8 0.00 0.00 0.00 92 1005.0
20260831104006 21 150 1.6 4.8 0.00 0.00 0.00 92 1005.0
20260831103505 21 149 3.2 4.8 0.00 0.00 0.00 92 1005.1
20260831103005 21 149 1.6 4.8 0.00 0.00 0.00 92 1005.2
20260831102505 21 149 0.0 3.2 0.00 0.00 0.00 92 1005.3
20260831102006 21 149 1.6 4.8 0.00 0.00 0.00 91 1005.2
20260831100505 21 149 1.6 4.8 0.00 0.00 0.00 91 1005.2
20260831095505 21 149 1.6 4.8 0.00 0.00 0.00 91 1005.2
20260831095005 21 149 1.6 4.8 0.00 0.00 0.00 91 1005.2
20260831094005 21 149 1.6 3.2 0.00 0.00 0.00 91 1005.4
20260831093005 22 149 0.0 1.6 0.00 0.00 0.00 91 1005.2
20260831092505 22 149 1.6 3.2 0.00 0.00 0.00 91 1005.2
20260831092007 22 149 1.6 4.8 0.00 0.00 0.00 91 1005.2
20260831091506 22 149 1.6 4.8 0.00 0.00 0.00 91 1005.1
20260831091006 22 149 0.0 1.6 0.00 0.00 0.00 91 1005.2
20260831090506 22 149 0.0 0.0 0.00 0.00 0.00 91 1005.3
20260831090006 22 149 0.0 3.2 0.00 0.00 0.00 91 1005.2
20260831085506 22 149 0.0 3.2 0.00 0.00 0.00 91 1005.3
20260831085006 22 149 1.6 3.2 0.00 0.00 0.00 91 1005.3
20260831084506 22 149 0.0 3.2 0.00 0.00 0.00 91 1005.3
20260831084006 22 149 1.6 4.8 0.00 0.00 0.00 91 1005.2
20260831083506 22 149 1.6 3.2 0.00 0.00 0.00 90 1005.0
20260831083008 22 149 1.6 4.8 0.00 0.00 0.00 90 1005.0
20260831082506 22 154 1.6 4.8 0.00 0.00 0.00 91 1005.0
20260831081506 22 96 3.2 8.0 0.00 0.00 0.00 91 1005.0
20260831081006 22 162 3.2 11.3 0.00 0.00 0.00 90 1005.0
20260831080506 22 156 3.2 9.7 0.00 0.00 0.00 90 1005.0
20260831080006 22 159 4.8 8.0 0.00 0.00 0.00 90 1005.0
20260831075506 22 161 3.2 9.7 0.00 0.00 0.00 90 1005.0
20260831075006 22 140 1.6 8.0 0.00 0.00 0.00 90 1005.1
20260831074506 22 163 3.2 8.0 0.00 0.00 0.00 90 1005.2
20260831074007 22 163 4.8 8.0 0.00 0.00 0.00 90 1005.2
20260831073507 22 163 3.2 8.0 0.00 0.00 0.00 90 1005.2
20260831073006 22 159 3.2 8.0 0.00 0.00 0.00 90 1005.3
20260831072506 22 157 3.2 11.3 0.00 0.00 0.00 91 1005.3
20260831072006 22 161 4.8 8.0 0.00 0.00 0.00 91 1005.3
20260831071506 22 161 3.2 8.0 0.00 0.00 0.00 91 1005.2
20260831071006 22 160 3.2 8.0 0.00 0.00 0.00 90 1005.3
20260831070006 22 167 4.8 4.8 0.00 0.00 0.00 90 1005.4
20260831065506 22 167 3.2 4.8 0.00 0.00 0.00 90 1005.4
20260831065006 22 167 3.2 4.8 0.00 0.00 0.00 90 1005.4
20260831064506 22 167 3.2 4.8 0.00 0.00 0.00 90 1005.5
20260831064006 22 167 3.2 8.0 0.00 0.00 0.00 90 1005.5
20260831063006 22 161 1.6 4.8 0.00 0.00 0.00 90 1005.6
20260831062506 22 161 3.2 4.8 0.00 0.00 0.00 90 1005.8
20260831060506 22 165 1.6 4.8 0.00 0.00 0.00 89 1006.0
20260831060007 22 165 1.6 4.8 0.00 0.00 0.00 89 1005.9
20260831055506 22 165 1.6 4.8 0.00 0.00 0.00 89 1005.9
20260831055006 22 165 3.2 4.8 0.00 0.00 0.00 89 1005.9
20260831054507 22 165 1.6 4.8 0.00 0.00 0.00 89 1006.0
20260831054006 22 165 1.6 4.8 0.00 0.00 0.00 89 1006.0
20260831053506 22 165 1.6 3.2 0.00 0.00 0.00 88 1006.1
20260831053006 22 165 1.6 4.8 0.00 0.00 0.00 88 1006.1
20260831052506 22 165 3.2 4.8 0.00 0.00 0.00 88 1006.2
20260831052006 22 165 3.2 4.8 0.00 0.00 0.00 88 1006.1
20260831051006 22 159 3.2 8.0 0.00 0.00 0.00 88 1006.3
20260831050506 22 159 3.2 9.7 0.00 0.00 0.00 88 1006.2
20260831050006 22 159 3.2 8.0 0.00 0.00 0.00 87 1006.3
20260831045506 22 154 3.2 11.3 0.00 0.00 0.00 87 1006.3
20260831045006 22 160 3.2 8.0 0.00 0.00 0.00 87 1006.3
20260831044506 22 160 3.2 8.0 0.00 0.00 0.00 87 1006.3
20260831044006 22 160 3.2 8.0 0.00 0.00 0.00 87 1006.2
20260831043506 22 158 3.2 8.0 0.00 0.00 0.00 87 1006.3
20260831043006 22 162 3.2 8.0 0.00 0.00 0.00 86 1006.3
20260831042506 22 161 3.2 4.8 0.00 0.00 0.00 86 1006.3
20260831042006 22 158 3.2 8.0 0.00 0.00 0.00 86 1006.3
20260831041506 22 159 3.2 9.7 0.00 0.00 0.00 86 1006.2
20260831041006 22 153 1.6 9.7 0.00 0.00 0.00 86 1006.3
20260831040506 22 158 3.2 8.0 0.00 0.00 0.00 85 1006.3
20260831040006 22 158 3.2 8.0 0.00 0.00 0.00 85 1006.2
20260831035506 23 157 3.2 9.7 0.00 0.00 0.00 85 1006.3
20260831035007 23 165 3.2 9.7 0.00 0.00 0.00 85 1006.3
20260831034507 23 162 3.2 9.7 0.00 0.00 0.00 85 1006.3
20260831034007 23 151 4.8 9.7 0.00 0.00 0.00 85 1006.3
20260831033006 23 161 3.2 9.7 0.00 0.00 0.00 85 1006.5
20260831032506 23 161 3.2 9.7 0.00 0.00 0.00 84 1006.6
20260831032006 23 160 4.8 8.0 0.00 0.00 0.00 84 1006.6
20260831031506 23 150 3.2 8.0 0.00 0.00 0.00 84 1006.7
20260831031006 23 143 3.2 9.7 0.00 0.00 0.00 84 1006.7
20260831030506 23 154 4.8 9.7 0.00 0.00 0.00 84 1006.7
20260831030006 23 162 3.2 4.8 0.00 0.00 0.00 84 1006.8
20260831025506 23 165 4.8 9.7 0.00 0.00 0.00 84 1006.8
20260831025006 23 167 6.4 11.3 0.00 0.00 0.00 84 1006.8
20260831024506 23 179 4.8 9.7 0.00 0.00 0.00 84 1006.9
20260831024007 23 161 4.8 9.7 0.00 0.00 0.00 83 1006.9
20260831023506 23 177 3.2 8.0 0.00 0.00 0.00 83 1006.9
20260831023006 23 152 3.2 8.0 0.00 0.00 0.00 83 1007.0
20260831022507 23 163 4.8 9.7 0.00 0.00 0.00 83 1007.0